When you browse on this site, cookies collect data to enhance your experience and personalize the content and advertising you see.
Visit our Privacy Policy to learn more. By continuing to use the site, you agree to this use of cookies and data.
  • Em Portugal
  • Lista de países
  • Para 7 dias
  • Temperatura da água
  • Mapas de satélite
  • Mapa do tempo
  • Widgets de tempo
  • user-avatar
    Iniciar Sessão

    Previsão horária em Mikolajowka

    Hoje, 25 Maio, Sábado

    Tempo Temperatura Precipitação Vento Pressão Humidade
    00:00 +10°C° 0 mm 2 m/s 738 mmHg 81%
    01:00 +9°C° 0 mm 2 m/s 738 mmHg 79%
    02:00 +10°C° 0 mm 1 m/s 737 mmHg 80%
    03:00 +10°C° 0 mm 1 m/s 737 mmHg 79%
    04:00 +10°C° 0 mm 1 m/s 737 mmHg 79%
    05:00 +9°C° 0 mm 2 m/s 737 mmHg 79%
    06:00 +12°C° 0 mm 2 m/s 737 mmHg 76%
    07:00 +13°C° 0 mm 3 m/s 737 mmHg 74%
    08:00 +15°C° 0 mm 4 m/s 737 mmHg 71%
    09:00 +17°C° 0.1 mm 4 m/s 737 mmHg 68%
    10:00 +17°C° 0.1 mm 5 m/s 737 mmHg 65%
    11:00 +19°C° 0.1 mm 5 m/s 737 mmHg 62%
    12:00 +19°C° 0.4 mm 5 m/s 737 mmHg 66%
    13:00 +17°C° 0.4 mm 5 m/s 737 mmHg 71%
    14:00 +16°C° 0.4 mm 5 m/s 737 mmHg 76%
    15:00 +16°C° 0 mm 5 m/s 737 mmHg 74%
    16:00 +15°C° 0 mm 5 m/s 737 mmHg 73%
    17:00 +15°C° 0 mm 6 m/s 737 mmHg 72%
    18:00 +14°C° 0 mm 5 m/s 737 mmHg 76%
    19:00 +12°C° 0 mm 4 m/s 737 mmHg 80%
    20:00 +11°C° 0 mm 3 m/s 737 mmHg 84%
    21:00 +10°C° 0 mm 3 m/s 737 mmHg 87%
    22:00 +8°C° 0 mm 3 m/s 738 mmHg 91%
    23:00 +7°C° 0 mm 3 m/s 738 mmHg 95%

    Amanhã, 26 Maio, Domingo

    Tempo Temperatura Precipitação Vento Pressão Humidade
    00:00 +7°C° 0 mm 2 m/s 738 mmHg 96%
    01:00 +6°C° 0 mm 2 m/s 738 mmHg 96%
    02:00 +6°C° 0 mm 2 m/s 738 mmHg 97%
    03:00 +6°C° 0 mm 2 m/s 738 mmHg 97%
    04:00 +5°C° 0 mm 3 m/s 738 mmHg 97%
    05:00 +5°C° 0 mm 3 m/s 738 mmHg 97%
    06:00 +8°C° 0 mm 3 m/s 738 mmHg 91%
    07:00 +8°C° 0 mm 4 m/s 738 mmHg 84%
    08:00 +10°C° 0 mm 5 m/s 738 mmHg 78%
    09:00 +12°C° 0 mm 5 m/s 738 mmHg 78%
    10:00 +12°C° 0 mm 5 m/s 738 mmHg 78%
    11:00 +12°C° 0 mm 5 m/s 737 mmHg 77%
    12:00 +13°C° 0.1 mm 5 m/s 737 mmHg 77%
    13:00 +13°C° 0.1 mm 5 m/s 737 mmHg 77%
    14:00 +13°C° 0.1 mm 5 m/s 737 mmHg 76%
    15:00 +13°C° 0.1 mm 5 m/s 737 mmHg 76%
    16:00 +13°C° 0.1 mm 5 m/s 737 mmHg 75%
    17:00 +13°C° 0.1 mm 5 m/s 737 mmHg 75%
    18:00 +13°C° 0 mm 5 m/s 736 mmHg 77%
    19:00 +12°C° 0 mm 4 m/s 736 mmHg 80%
    20:00 +12°C° 0 mm 3 m/s 736 mmHg 83%
    21:00 +11°C° 0 mm 3 m/s 736 mmHg 85%
    22:00 +10°C° 0 mm 3 m/s 736 mmHg 88%
    23:00 +10°C° 0 mm 4 m/s 736 mmHg 90%

    Depois de amanhã, 27 Maio, Segunda-feira

    Tempo Temperatura Precipitação Vento Pressão Humidade
    00:00 +10°C° 0 mm 4 m/s 736 mmHg 88%
    01:00 +11°C° 0 mm 4 m/s 736 mmHg 85%
    02:00 +12°C° 0 mm 4 m/s 736 mmHg 83%
    03:00 +12°C° 0 mm 4 m/s 736 mmHg 85%
    04:00 +12°C° 0 mm 4 m/s 736 mmHg 87%
    05:00 +12°C° 0 mm 4 m/s 735 mmHg 89%
    06:00 +13°C° 0 mm 4 m/s 736 mmHg 86%
    07:00 +14°C° 0 mm 5 m/s 736 mmHg 83%
    08:00 +15°C° 0 mm 5 m/s 736 mmHg 80%
    09:00 +16°C° 0.1 mm 6 m/s 736 mmHg 79%
    10:00 +17°C° 0.1 mm 6 m/s 735 mmHg 77%
    11:00 +17°C° 0.1 mm 7 m/s 735 mmHg 76%
    12:00 +18°C° 0.5 mm 7 m/s 735 mmHg 77%
    13:00 +18°C° 0.5 mm 7 m/s 735 mmHg 78%
    14:00 +19°C° 0.5 mm 6 m/s 735 mmHg 79%
    15:00 +19°C° 1.1 mm 6 m/s 735 mmHg 81%
    16:00 +19°C° 1.1 mm 6 m/s 735 mmHg 83%
    17:00 +19°C° 1.1 mm 5 m/s 735 mmHg 86%
    18:00 +18°C° 0.8 mm 4 m/s 735 mmHg 89%
    19:00 +17°C° 0.8 mm 3 m/s 736 mmHg 92%
    20:00 +16°C° 0.8 mm 2 m/s 736 mmHg 95%
    21:00 +15°C° 0 mm 2 m/s 736 mmHg 96%
    22:00 +14°C° 0 mm 2 m/s 737 mmHg 96%
    23:00 +13°C° 0 mm 2 m/s 737 mmHg 97%

    28 Maio, Terça-feira

    Tempo Temperatura Precipitação Vento Pressão Humidade
    00:00 +13°C° 0 mm 2 m/s 737 mmHg 96%
    01:00 +13°C° 0 mm 1 m/s 737 mmHg 95%
    02:00 +12°C° 0 mm 1 m/s 737 mmHg 94%
    03:00 +12°C° 0 mm 1 m/s 737 mmHg 93%
    04:00 +12°C° 0 mm 1 m/s 737 mmHg 92%
    05:00 +12°C° 0 mm 1 m/s 737 mmHg 91%
    06:00 +13°C° 0 mm 1 m/s 737 mmHg 90%
    07:00 +13°C° 0 mm 2 m/s 737 mmHg 88%
    08:00 +14°C° 0 mm 2 m/s 737 mmHg 87%
    09:00 +13°C° 1.3 mm 3 m/s 737 mmHg 89%
    10:00 +13°C° 1.3 mm 3 m/s 737 mmHg 92%
    11:00 +14°C° 1.3 mm 3 m/s 736 mmHg 94%
    12:00 +14°C° 1.7 mm 3 m/s 736 mmHg 95%
    13:00 +14°C° 1.7 mm 3 m/s 736 mmHg 96%
    14:00 +14°C° 1.7 mm 3 m/s 735 mmHg 97%
    15:00 +16°C° 0.1 mm 3 m/s 735 mmHg 96%
    16:00 +16°C° 0.1 mm 3 m/s 734 mmHg 95%
    17:00 +17°C° 0.1 mm 3 m/s 734 mmHg 94%
    18:00 +16°C° 0 mm 3 m/s 734 mmHg 95%
    19:00 +16°C° 0 mm 3 m/s 734 mmHg 96%
    20:00 +16°C° 0 mm 3 m/s 734 mmHg 97%
    21:00 +14°C° 0.1 mm 3 m/s 734 mmHg 97%
    22:00 +14°C° 0.1 mm 3 m/s 734 mmHg 98%
    23:00 +13°C° 0.1 mm 3 m/s 733 mmHg 98%

    29 Maio, Quarta-feira

    Tempo Temperatura Precipitação Vento Pressão Humidade
    00:00 +14°C° 0.3 mm 2 m/s 733 mmHg 98%
    01:00 +14°C° 0.3 mm 2 m/s 733 mmHg 98%
    02:00 +14°C° 0.3 mm 2 m/s 733 mmHg 99%
    03:00 +14°C° 0.2 mm 2 m/s 733 mmHg 98%
    04:00 +15°C° 0.2 mm 2 m/s 733 mmHg 98%
    05:00 +15°C° 0.2 mm 2 m/s 733 mmHg 98%
    06:00 +15°C° 0 mm 2 m/s 733 mmHg 98%
    07:00 +15°C° 0 mm 2 m/s 733 mmHg 97%
    08:00 +14°C° 0 mm 3 m/s 734 mmHg 96%
    09:00 +14°C° 0.7 mm 3 m/s 734 mmHg 95%
    10:00 +14°C° 0.7 mm 3 m/s 734 mmHg 95%
    11:00 +14°C° 0.7 mm 4 m/s 734 mmHg 94%
    12:00 +14°C° 0.7 mm 4 m/s 735 mmHg 94%
    13:00 +14°C° 0.7 mm 5 m/s 735 mmHg 94%
    14:00 +14°C° 0.7 mm 6 m/s 736 mmHg 94%
    15:00 +13°C° 0.7 mm 6 m/s 736 mmHg 94%
    16:00 +11°C° 0.7 mm 6 m/s 736 mmHg 95%
    17:00 +10°C° 0.7 mm 7 m/s 736 mmHg 95%
    18:00 +10°C° 0.8 mm 7 m/s 737 mmHg 95%
    19:00 +9°C° 0.8 mm 7 m/s 738 mmHg 95%
    20:00 +8°C° 0.8 mm 7 m/s 739 mmHg 95%
    21:00 +8°C° 0.3 mm 6 m/s 739 mmHg 94%
    22:00 +7°C° 0.3 mm 6 m/s 740 mmHg 93%
    23:00 +7°C° 0.3 mm 5 m/s 740 mmHg 92%

    30 Maio, Quinta-feira

    Tempo Temperatura Precipitação Vento Pressão Humidade
    00:00 +6°C° 0 mm 5 m/s 741 mmHg 91%
    01:00 +6°C° 0 mm 5 m/s 741 mmHg 90%
    02:00 +5°C° 0 mm 4 m/s 742 mmHg 89%
    03:00 +5°C° 0 mm 4 m/s 742 mmHg 89%
    04:00 +4°C° 0 mm 3 m/s 743 mmHg 89%
    05:00 +3°C° 0 mm 3 m/s 743 mmHg 89%
    06:00 +5°C° 0 mm 3 m/s 744 mmHg 84%
    07:00 +8°C° 0 mm 3 m/s 744 mmHg 79%
    08:00 +10°C° 0 mm 3 m/s 745 mmHg 73%
    09:00 +11°C° 0 mm 3 m/s 745 mmHg 66%
    10:00 +13°C° 0 mm 3 m/s 745 mmHg 60%
    11:00 +14°C° 0 mm 3 m/s 746 mmHg 53%
    12:00 +16°C° 0 mm 3 m/s 746 mmHg 52%
    13:00 +16°C° 0 mm 3 m/s 746 mmHg 52%
    14:00 +17°C° 0 mm 3 m/s 746 mmHg 52%
    15:00 +17°C° 0 mm 2 m/s 746 mmHg 52%
    16:00 +17°C° 0 mm 2 m/s 746 mmHg 53%
    17:00 +17°C° 0 mm 2 m/s 746 mmHg 53%
    18:00 +15°C° 0 mm 1 m/s 745 mmHg 59%
    19:00 +14°C° 0 mm 1 m/s 745 mmHg 65%
    20:00 +13°C° 0 mm 1 m/s 745 mmHg 71%
    21:00 +12°C° 0 mm 1 m/s 745 mmHg 72%
    22:00 +11°C° 0 mm 1 m/s 745 mmHg 74%
    23:00 +10°C° 0 mm 1 m/s 745 mmHg 75%
    Mostrar mais